{"data":{"norad_id":53002,"epoch":"2026-09-20T02:04:25.476672Z","epoch_age_seconds":104567,"freshness":"FRESH","line1":"1 53002U 22076S   26263.08640598  .00001253  00000+0  46818-4 0  9997","line2":"2 53002  53.1597 285.9106 0001233  73.1870 286.9268 15.35408251232404","mean_motion":15.35408251,"eccentricity":0.0001233,"inclination_deg":53.1597,"raan_deg":285.9106,"arg_perigee_deg":73.187,"mean_anomaly_deg":286.9268,"bstar":4.6818e-5,"rev_number":23240,"period_min":93.78613141242,"perigee_km":458.86503944805,"apogee_km":460.551252061,"semimajor_km":6837.8451457545,"source":"CELESTRAK","updated_at":"2026-09-20T09:00:40.141775Z"}}